This is the latest recevied weather packets stored in our database for station/object KD0RIH. If no packets are shown the sender has not sent any weather packets the latest 10 day(s).
| Time | Temp. | Humidity | Pressure | Rain* | Wind** | Luminosity | Snow |
|---|---|---|---|---|---|---|---|
| 1777890843 | 14.44° C | 72% | 1003.9 hPa | 0 mm | - | 0 W/m² | - |
| 1777890539 | 15° C | 69% | 1004.2 hPa | 0 mm | - | 0 W/m² | - |
| 1777890235 | 15° C | 69% | 1004.1 hPa | 0 mm | - | 0 W/m² | - |
| 1777889931 | 15° C | 69% | 1004.2 hPa | 0 mm | - | 0 W/m² | - |
| 1777889629 | 15° C | 70% | 1004.2 hPa | 0 mm | - | 0 W/m² | - |
| 1777889326 | 15° C | 67% | 1004.3 hPa | 0 mm | - | 0 W/m² | - |
| 1777889023 | 15° C | 70% | 1004.5 hPa | 0 mm | - | 0 W/m² | - |
| 1777888721 | 15° C | 70% | 1004.6 hPa | 0 mm | - | 0 W/m² | - |
| 1777888416 | 15° C | 70% | 1004.6 hPa | 0 mm | - | 0 W/m² | - |
| 1777888113 | 15° C | 70% | 1004.5 hPa | 0 mm | - | 0 W/m² | - |
| 1777887811 | 15° C | 69% | 1004.6 hPa | 0 mm | - | 0 W/m² | - |
| 1777887507 | 15.56° C | 67% | 1004.8 hPa | 0 mm | - | 0 W/m² | - |
| 1777887203 | 15.56° C | 67% | 1004.7 hPa | 0 mm | - | 0 W/m² | - |
| 1777886899 | 15.56° C | 68% | 1004.8 hPa | 0 mm | - | 0 W/m² | - |
| 1777886594 | 15.56° C | 68% | 1004.9 hPa | 0 mm | - | 0 W/m² | - |
| 1777886292 | 15.56° C | 68% | 1004.9 hPa | 0 mm | - | 0 W/m² | - |
| 1777885990 | 15.56° C | 69% | 1005.1 hPa | 1.27 mm | - | 0 W/m² | - |
| 1777885689 | 15° C | 67% | 1005.1 hPa | 3.05 mm | - | 0 W/m² | - |
| 1777885386 | 15° C | 74% | 1005.7 hPa | 4.32 mm | - | 0 W/m² | - |
| 1777885085 | 15.56° C | 72% | 1006.3 hPa | 4.83 mm | - | 0 W/m² | - |
| 1777884781 | 16.11° C | 65% | 1006.6 hPa | 3.56 mm | - | 0 W/m² | - |
| 1777884476 | 16.11° C | 63% | 1006.5 hPa | 0 mm | - | 0 W/m² | - |
| 1777884175 | 16.67° C | 60% | 1005.9 hPa | 0 mm | - | 0 W/m² | - |
| 1777883871 | 16.11° C | 60% | 1005.2 hPa | 0 mm | - | 0 W/m² | - |
| 1777883568 | 16.11° C | 59% | 1005.2 hPa | 0 mm | - | 0 W/m² | - |
* Rain latest hour (hover to see other rain measurements)
** Current wind speed in m/s (hover to see current wind gust speed)